TimeAKDT,TemperatureF,Dew PointF,Humidity,Sea Level PressureIn,VisibilityMPH,Wind Direction,Wind SpeedMPH,Gust SpeedMPH,PrecipitationIn,Events,Conditions,WindDirDegrees,DateUTC
12:53 AM,12.9,10.9,92,30.05,10.0,South,8.1,-,N/A,,Clear,190,2013-10-22 08:53:00
1:53 AM,12.9,12.0,96,30.06,10.0,SW,4.6,-,0.00,,Clear,220,2013-10-22 09:53:00
2:53 AM,15.1,12.9,91,30.08,10.0,SSW,3.5,-,N/A,,Overcast,200,2013-10-22 10:53:00
3:53 AM,17.1,15.1,92,30.08,10.0,South,8.1,-,N/A,,Overcast,190,2013-10-22 11:53:00
4:53 AM,19.9,18.0,92,30.09,10.0,South,6.9,-,0.00,,Overcast,190,2013-10-22 12:53:00
5:53 AM,21.9,19.9,92,30.09,10.0,South,6.9,-,N/A,,Overcast,180,2013-10-22 13:53:00
6:53 AM,21.0,19.0,92,30.10,10.0,South,6.9,-,N/A,,Overcast,190,2013-10-22 14:53:00
7:53 AM,21.0,19.9,96,30.11,10.0,South,3.5,-,N/A,,Overcast,180,2013-10-22 15:53:00
8:53 AM,21.0,19.9,96,30.12,10.0,South,4.6,-,N/A,,Mostly Cloudy,190,2013-10-22 16:53:00
9:53 AM,21.9,19.9,92,30.13,10.0,South,8.1,-,N/A,,Overcast,190,2013-10-22 17:53:00
10:53 AM,19.9,19.0,96,30.14,10.0,SSW,8.1,-,N/A,,Scattered Clouds,200,2013-10-22 18:53:00
11:53 AM,19.0,18.0,96,30.15,10.0,SSW,9.2,-,N/A,,Clear,200,2013-10-22 19:53:00
12:53 PM,18.0,17.1,96,30.17,10.0,South,9.2,-,N/A,,Clear,190,2013-10-22 20:53:00
1:53 PM,21.9,21.0,96,30.17,10.0,South,6.9,-,N/A,,Overcast,190,2013-10-22 21:53:00
2:53 PM,21.9,19.9,92,30.18,10.0,SSW,8.1,-,N/A,,Mostly Cloudy,200,2013-10-22 22:53:00
3:53 PM,21.9,21.0,96,30.18,10.0,SSW,5.8,-,N/A,,Clear,200,2013-10-22 23:53:00
4:53 PM,19.9,18.0,92,30.18,10.0,SSW,9.2,-,N/A,,Clear,200,2013-10-23 00:53:00
5:53 PM,17.1,16.0,96,30.18,10.0,SW,10.4,-,N/A,,Clear,220,2013-10-23 01:53:00
6:53 PM,15.1,15.1,100,30.19,10.0,WSW,8.1,-,N/A,,Clear,240,2013-10-23 02:53:00
7:53 PM,14.0,12.9,95,30.19,10.0,SW,9.2,-,N/A,,Clear,230,2013-10-23 03:53:00
8:29 PM,12.2,12.2,100,30.19,10.0,West,5.8,-,N/A,,Scattered Clouds,270,2013-10-23 04:29:00
8:38 PM,14.0,12.2,93,30.19,10.0,West,8.1,-,N/A,,Mostly Cloudy,260,2013-10-23 04:38:00
8:53 PM,16.0,15.1,96,30.20,10.0,West,9.2,-,N/A,,Overcast,270,2013-10-23 04:53:00
9:04 PM,17.6,15.8,93,30.20,7.0,West,8.1,-,N/A,,Overcast,270,2013-10-23 05:04:00
9:10 PM,17.6,17.6,100,30.20,1.8,West,8.1,-,N/A,,Overcast,270,2013-10-23 05:10:00
9:20 PM,19.4,19.4,100,30.20,3.0,West,8.1,-,N/A,,Overcast,280,2013-10-23 05:20:00
9:34 PM,19.4,19.4,100,30.20,1.5,West,8.1,-,N/A,,Overcast,280,2013-10-23 05:34:00
9:40 PM,19.4,19.4,100,30.20,0.5,WNW,6.9,-,N/A,Fog,Light Freezing Fog,290,2013-10-23 05:40:00
9:51 PM,19.4,19.4,100,30.20,0.2,West,8.1,-,0.00,Fog-Rain,Light Freezing Rain,280,2013-10-23 05:51:00
9:53 PM,19.0,19.0,100,30.20,0.2,West,8.1,-,0.00,Fog-Rain,Light Freezing Rain,280,2013-10-23 05:53:00
10:33 PM,17.6,17.6,100,30.20,1.2,West,3.5,-,0.00,Rain,Light Freezing Rain,270,2013-10-23 06:33:00
10:46 PM,17.6,17.6,100,30.20,1.0,WSW,3.5,-,0.00,,Overcast,250,2013-10-23 06:46:00
10:49 PM,17.6,17.6,100,30.20,0.8,WSW,3.5,-,0.00,,Overcast,240,2013-10-23 06:49:00
10:53 PM,17.1,16.0,96,30.20,0.8,SW,3.5,-,0.00,,Overcast,220,2013-10-23 06:53:00
11:19 PM,15.8,15.8,100,30.20,0.5,SW,3.5,-,0.00,Fog,Light Freezing Fog,230,2013-10-23 07:19:00
11:53 PM,15.1,14.0,95,30.20,0.5,SSW,8.1,-,0.00,Fog,Light Freezing Fog,210,2013-10-23 07:53:00